Waarnemingen

Advertentie
Mijn weer
Aultbea, Groot Brittannië (3034): temperatuur & dauwpunt: 12.12.2017 05:00:00 - 18.12.2017 05:00:00 (GMT)Aultbea, Groot Brittannië (3034): temperatuur -20cm & temperatuur -100cm: 12.12.2017 05:00:00 - 18.12.2017 05:00:00 (GMT)Aultbea, Groot Brittannië (3034): windsnelheid & windstoten: 12.12.2017 05:00:00 - 18.12.2017 05:00:00 (GMT)Aultbea, Groot Brittannië (3034): windrichting: 12.12.2017 05:00:00 - 18.12.2017 05:00:00 (GMT)Aultbea, Groot Brittannië (3034): luchtdruk: 12.12.2017 05:00:00 - 18.12.2017 05:00:00 (GMT)Aultbea, Groot Brittannië (3034): zicht: 12.12.2017 05:00:00 - 18.12.2017 05:00:00 (GMT)Aultbea, Groot Brittannië (3034): neerslag: 12.12.2017 05:00:00 - 18.12.2017 05:00:00 (GMT)
Datum & Tijd tt [°C] td [°C] tt -20cm [°C] tt -100cm [°C] ff [km/u] ff [kn] fx [km/u] fx [kn] dd ppp [hPa] vv [km] rr [mm]
18.12.2017 05:00:00 - - - - - - - - - - - -
18.12.2017 04:00:00 6,8 4,7 - - 18 10 - - ZZW 1022,4 19 0,0
18.12.2017 03:00:00 6,3 4,1 - - 18 10 - - ZW 1021,9 19 0,0
18.12.2017 02:00:00 5,2 4,0 - - 9 5 - - WZW 1021,5 15 0,0
18.12.2017 01:00:00 4,9 2,9 - - 8 4 - - ZW 1020,8 16 0,0
18.12.2017 00:00:00 5,9 2,7 - - 8 4 - - WZW 1020,4 22 0,0
17.12.2017 23:00:00 6,6 2,7 - - 15 8 - - W 1020,0 20 0,0
17.12.2017 22:00:00 6,8 3,6 - - 15 8 - - W 1019,2 17 0,0
17.12.2017 21:00:00 7,2 3,4 - - 21 11 - - W 1018,5 19 0,0
17.12.2017 20:00:00 7,6 3,3 - - 24 13 - - W 1018,1 15 0,0
17.12.2017 19:00:00 6,9 3,4 - - 21 11 - - W 1017,2 15 0,0
17.12.2017 18:00:00 7,4 3,5 - - 24 13 - - W 1016,1 16 0,0
17.12.2017 17:00:00 6,9 3,5 - - 22 12 48 26 W 1015,2 23 0,0
17.12.2017 16:00:00 7,2 3,1 - - 22 12 - - W 1014,4 21 0,0
17.12.2017 15:00:00 6,9 3,9 - - 24 13 48 26 W 1013,4 15 0,0
17.12.2017 14:00:00 7,8 3,1 - - 28 15 - - W 1012,5 14 0,0
17.12.2017 13:00:00 8,1 3,4 - - 24 13 - - WNW 1011,3 17 0,0
17.12.2017 12:00:00 7,6 3,4 - - 28 15 48 26 WNW 1010,2 15 0,0
17.12.2017 11:00:00 8,0 5,3 - - 28 15 57 31 WNW 1008,8 11 0,4
17.12.2017 10:00:00 8,5 7,8 - - 41 22 63 34 W 1007,1 5 0,8
17.12.2017 09:00:00 9,2 8,5 4,2 6,4 29 16 54 29 W 1006,1 19 1,6
17.12.2017 08:00:00 8,2 7,5 - - 37 20 57 31 ZZW 1005,7 4,1 2,2
17.12.2017 07:00:00 8,1 7,1 - - 46 25 61 33 Z 1006,2 6 2,2
17.12.2017 06:00:00 8,2 6,8 - - 42 23 61 33 Z 1007,6 15 0,4
17.12.2017 05:00:00 8,1 6,6 - - 37 20 54 29 Z 1008,8 16 0,4
17.12.2017 04:00:00 7,7 6,3 - - 39 21 52 28 Z 1010,6 12 0,0
17.12.2017 03:00:00 7,2 5,6 - - 31 17 48 26 Z 1012,3 40 0,2
17.12.2017 02:00:00 7,1 4,8 - - 31 17 - - Z 1013,3 30 0,0
17.12.2017 01:00:00 6,6 4,1 - - 26 14 - - Z 1014,2 22 0,0
17.12.2017 00:00:00 6,1 3,4 - - 21 11 - - Z 1015,4 45 -
16.12.2017 23:00:00 5,5 2,3 - - 21 11 - - Z 1015,9 50 0,0
16.12.2017 22:00:00 5,2 1,8 - - 22 12 - - Z 1016,6 50 0,0
16.12.2017 21:00:00 3,6 1,9 - - 16 9 - - ZZO 1017,3 50 0,0
16.12.2017 20:00:00 3,3 1,9 - - 18 10 - - ZZO 1017,6 50 0,0
16.12.2017 19:00:00 3,3 1,8 - - 15 8 - - ZZO 1018,0 50 0,0
16.12.2017 18:00:00 3,6 2,1 - - 15 8 - - ZZO 1017,9 50 0,0
16.12.2017 17:00:00 3,1 1,6 - - 13 7 - - ZZO 1017,7 50 0,0
16.12.2017 16:00:00 2,9 1,5 - - 11 6 - - ZZO 1017,5 45 0,0
16.12.2017 15:00:00 2,8 1,2 - - 9 5 - - ZZO 1017,5 50 0,0
16.12.2017 14:00:00 3,9 1,5 - - 13 7 - - Z 1017,2 40 0,0
16.12.2017 13:00:00 5,1 2,5 - - 13 7 - - ZZW 1016,7 35 0,0
16.12.2017 12:00:00 3,8 1,4 - - 9 5 - - Z 1016,7 50 0,0
16.12.2017 11:00:00 3,0 1,2 - - 4 2 - - OZO 1016,5 50 0,0
16.12.2017 10:00:00 3,0 0,9 - - 5 3 - - O 1016,0 50 0,0
16.12.2017 09:00:00 3,7 -0,1 4,0 6,5 5 3 - - ONO 1015,3 45 0,0
16.12.2017 08:00:00 4,5 -0,1 - - 8 4 - - NNW 1014,9 50 0,0
16.12.2017 07:00:00 3,7 -0,9 - - 9 5 - - N 1014,4 40 0,0
16.12.2017 06:00:00 4,7 0,6 - - 9 5 - - NW 1013,9 40 0,0
16.12.2017 05:00:00 4,8 0,2 - - 11 6 - - NW 1013,9 45 0,0
16.12.2017 04:00:00 4,5 0,1 - - 11 6 - - WNW 1013,8 45 0,0
16.12.2017 03:00:00 3,8 0,2 - - 8 4 - - NNW 1013,6 50 0,0
16.12.2017 02:00:00 4,4 -0,3 - - 11 6 - - WNW 1013,3 30 0,0
16.12.2017 01:00:00 4,6 0,4 - - 13 7 - - NW 1013,3 50 0,0
16.12.2017 00:00:00 4,1 -0,4 - - 9 5 - - NW 1013,1 45 0,0
15.12.2017 23:00:00 3,9 -0,2 - - 9 5 - - NW 1012,9 35 0,0
15.12.2017 22:00:00 4,1 1,6 - - 21 11 - - WNW 1012,9 30 0,2
15.12.2017 21:00:00 2,8 0,4 - - 16 9 - - NW 1013,0 13 0,0
15.12.2017 20:00:00 4,1 1,2 - - 18 10 - - WNW 1012,6 35 0,0
15.12.2017 19:00:00 2,1 0,4 - - 24 13 50 27 NNW 1012,5 11 0,6
15.12.2017 18:00:00 2,6 -0,8 - - 28 15 54 29 N 1012,0 45 0,0
15.12.2017 17:00:00 4,7 -0,3 - - 21 11 - - NNW 1010,9 30 0,0
15.12.2017 16:00:00 4,6 0,2 - - 22 12 46 25 NNW 1010,2 30 0,6
15.12.2017 15:00:00 3,6 1,2 - - 26 14 - - NNW 1010,1 22 0,4
15.12.2017 14:00:00 4,4 1,5 - - 15 8 - - N 1009,4 40 0,2
15.12.2017 13:00:00 4,9 1,3 - - 21 11 - - NW 1008,8 30 0,0
15.12.2017 12:00:00 5,0 1,9 - - 21 11 - - NNW 1008,3 29 0,0
15.12.2017 11:00:00 5,7 1,9 - - 15 8 - - NW 1007,6 30 0,0
15.12.2017 10:00:00 5,1 0,0 - - 15 8 - - NNW 1006,8 30 0,0
15.12.2017 09:00:00 3,5 1,2 4,2 6,7 16 9 - - NNO 1006,3 30 0,2
15.12.2017 08:00:00 4,8 0,0 - - 18 10 - - N 1005,6 40 0,0
15.12.2017 07:00:00 5,2 1,6 - - 18 10 - - N 1004,4 21 0,0
15.12.2017 06:00:00 4,7 1,0 - - 22 12 48 26 N 1003,2 24 0,6
15.12.2017 05:00:00 5,9 -0,6 - - 28 15 - - N 1002,0 30 0,0
15.12.2017 04:00:00 5,9 1,0 - - 29 16 48 26 N 1001,1 20 0,0
15.12.2017 03:00:00 5,7 2,3 - - 24 13 67 36 NNO 999,4 17 0,0
15.12.2017 02:00:00 5,3 2,6 - - 37 20 67 36 N 997,9 16 1,0
15.12.2017 01:00:00 5,7 3,2 - - 37 20 59 32 NNO 996,0 16 0,0
15.12.2017 00:00:00 5,9 3,8 - - 31 17 61 33 NNO 994,3 10 1,0
14.12.2017 23:00:00 4,4 3,3 - - 8 4 - - NNO 992,6 9 1,0
14.12.2017 22:00:00 4,6 2,2 - - 13 7 - - N 991,6 11 0,4
14.12.2017 21:00:00 4,5 1,5 - - 16 9 - - NO 989,7 50 0,0
14.12.2017 20:00:00 4,0 1,9 - - 13 7 - - NNO 987,4 45 0,0
14.12.2017 19:00:00 4,2 2,1 - - 21 11 - - NNO 984,8 45 0,0
14.12.2017 18:00:00 4,9 2,9 - - 22 12 - - NNO 982,5 35 0,0
14.12.2017 17:00:00 5,9 3,8 - - 26 14 - - N 979,9 30 0,6
14.12.2017 16:00:00 5,3 3,5 - - 18 10 - - N 979,2 30 1,4
14.12.2017 15:00:00 5,6 3,0 - - 24 13 - - WNW 978,9 22 1,8
14.12.2017 14:00:00 6,2 2,5 - - 16 9 - - NW 978,8 30 0,6
14.12.2017 13:00:00 4,7 3,1 - - 22 12 - - W 978,8 30 1,2
14.12.2017 12:00:00 4,7 3,3 - - 22 12 - - W 978,8 20 0,4
14.12.2017 11:00:00 5,0 2,8 - - 18 10 - - ZW 979,2 26 0,0
14.12.2017 10:00:00 3,2 1,7 - - 16 9 - - ZZW 979,1 30 0,0
14.12.2017 09:00:00 3,4 1,8 4,0 6,7 11 6 - - ZW 978,9 40 0,0
14.12.2017 08:00:00 2,9 1,1 - - 13 7 - - Z 978,5 45 0,0
14.12.2017 07:00:00 2,9 1,5 - - 13 7 - - Z 978,2 50 0,0
14.12.2017 06:00:00 2,8 0,7 - - 13 7 - - ZZO 977,9 50 0,0
14.12.2017 05:00:00 4,0 -0,3 - - 16 9 - - W 977,7 45 0,0
14.12.2017 04:00:00 3,7 1,2 - - 15 8 - - ZZW 978,0 35 0,0
14.12.2017 03:00:00 3,5 1,4 - - 13 7 - - ZW 978,7 30 0,0
14.12.2017 02:00:00 3,0 1,0 - - 16 9 - - WZW 978,6 50 0,0
14.12.2017 01:00:00 3,3 1,9 - - 13 7 - - WZW 978,8 30 0,0
14.12.2017 00:00:00 2,2 0,3 - - 16 9 54 29 W 978,7 40 0,4
13.12.2017 23:00:00 3,9 0,7 - - 15 8 - - W 978,6 45 0,0
13.12.2017 22:00:00 4,2 1,6 - - 22 12 - - W 978,6 30 0,0
13.12.2017 21:00:00 4,1 1,0 - - 18 10 - - W 978,7 45 0,0
13.12.2017 20:00:00 2,6 1,0 - - 11 6 - - ZW 979,0 45 0,0
13.12.2017 19:00:00 3,4 0,7 - - 18 10 - - W 979,1 45 0,0
13.12.2017 18:00:00 3,1 0,7 - - 22 12 - - WZW 979,3 40 0,0
13.12.2017 17:00:00 3,8 0,5 - - 21 11 - - W 978,9 27 0,0
13.12.2017 16:00:00 2,9 -0,4 - - 29 16 46 25 W 979,2 12 0,2
13.12.2017 15:00:00 4,6 -0,4 - - 21 11 - - W 979,3 40 0,0
13.12.2017 14:00:00 4,6 0,2 - - 21 11 52 28 W 979,4 40 0,0
13.12.2017 13:00:00 4,6 -0,5 - - 34 18 48 26 W 979,8 35 0,0
13.12.2017 12:00:00 5,0 -0,7 - - 28 15 48 26 W 980,4 35 0,4
13.12.2017 11:00:00 3,8 0,5 - - 26 14 57 31 W 981,2 11 0,2
13.12.2017 10:00:00 5,1 0,6 - - 31 17 48 26 W 980,6 40 0,0
13.12.2017 09:00:00 5,2 2,3 4,2 6,9 24 13 48 26 W 980,8 29 0,0
13.12.2017 08:00:00 5,6 2,9 - - 24 13 48 26 W 981,1 26 0,6
13.12.2017 07:00:00 6,0 3,8 - - 31 17 52 28 ZZW 981,3 45 0,0
13.12.2017 06:00:00 5,4 4,0 - - 37 20 54 29 ZZW 982,4 13 1,6
13.12.2017 05:00:00 5,7 2,9 - - 28 15 - - Z 983,4 21 0,0
13.12.2017 04:00:00 6,0 3,3 - - 24 13 - - Z 985,4 25 0,0
13.12.2017 03:00:00 5,7 3,2 - - 29 16 - - ZZW 987,1 21 0,0
13.12.2017 02:00:00 5,0 2,6 - - 16 9 - - ZW 988,5 23 1,0
13.12.2017 01:00:00 5,9 2,5 - - 22 12 - - WZW 989,1 27 0,0
13.12.2017 00:00:00 5,9 1,7 - - 26 14 46 25 WZW 989,7 30 0,0
12.12.2017 23:00:00 6,0 2,7 - - 24 13 52 28 W 990,0 23 0,0
12.12.2017 22:00:00 6,7 2,4 - - 28 15 46 25 W 990,0 18 0,0
12.12.2017 21:00:00 5,3 3,3 - - 13 7 - - ZW 990,4 30 0,4
12.12.2017 20:00:00 4,6 3,0 - - 29 16 48 26 Z 990,5 17 0,4
12.12.2017 19:00:00 4,7 2,0 - - 35 19 48 26 Z 990,2 40 0,0
12.12.2017 18:00:00 4,9 2,5 - - 28 15 48 26 Z 990,5 22 0,2
12.12.2017 17:00:00 5,0 2,4 - - 28 15 46 25 Z 991,6 30 0,0
12.12.2017 16:00:00 5,2 2,8 - - 29 16 - - Z 992,8 30 0,0
12.12.2017 15:00:00 5,2 2,5 - - 22 12 - - Z 994,0 50 0,0
12.12.2017 14:00:00 5,3 2,0 - - 24 13 - - Z 995,0 50 0,0
12.12.2017 13:00:00 4,8 1,8 - - 18 10 - - Z 996,4 40 0,0
12.12.2017 12:00:00 3,8 1,8 - - 15 8 - - ZO 997,7 45 0,0
12.12.2017 11:00:00 3,0 1,3 - - 13 7 - - Z 998,8 40 0,0
12.12.2017 10:00:00 2,0 0,9 - - 15 8 - - ZZO 999,3 50 0,0
12.12.2017 09:00:00 1,7 0,7 4,0 7,2 15 8 - - ZZO 999,8 30 0,2
12.12.2017 08:00:00 1,8 1,0 - - 18 10 - - Z 1000,2 35 0,0
12.12.2017 07:00:00 1,8 1,0 - - 9 5 - - ZO 1000,7 45 0,0
12.12.2017 06:00:00 1,9 0,7 - - 9 5 - - O 1001,0 50 0,0
12.12.2017 05:00:00 1,9 0,9 - - 13 7 - - ZO 1001,2 45 0,0

tt = temperatuur
td = dauwpunt
tt -20cm = temperatuur -20cm
tt -100cm = temperatuur -100cm
ff = windsnelheid
fx = windstoten
dd = windrichting
ppp = luchtdruk
vv = zicht
rr = neerslag

Weerstations in de omgeving